This is the latest recevied weather packets stored in our database for station/object W4SNA-3. If no packets are shown the sender has not sent any weather packets the latest 10 day(s).
| Time | Temp. | Humidity | Pressure | Rain* | Wind** | Luminosity | Snow |
|---|---|---|---|---|---|---|---|
| 1787895929 | 17.22° C | 96% | 1016.7 hPa | 0 mm | - | - | - |
| 1787895567 | 17.78° C | 96% | 1016.8 hPa | 0 mm | - | - | - |
| 1787895268 | 17.78° C | 95% | 1016.8 hPa | 0 mm | - | - | - |
| 1787894967 | 17.78° C | 95% | 1016.7 hPa | 0.25 mm | - | - | - |
| 1787894678 | 18.33° C | 97% | 1016.7 hPa | 0.25 mm | - | - | - |
| 1787894368 | 18.33° C | 97% | 1016.8 hPa | 0.25 mm | - | - | - |
| 1787894072 | 18.33° C | 97% | 1016.9 hPa | 0.25 mm | - | - | - |
| 1787893800 | 17.78° C | 97% | 1016.9 hPa | 0.25 mm | - | - | - |
| 1787893469 | 17.78° C | 96% | 1017 hPa | 0.25 mm | - | - | - |
| 1787893167 | 17.78° C | 95% | 1017 hPa | 0.51 mm | - | - | - |
| 1787892877 | 17.78° C | 95% | 1017 hPa | 0.51 mm | - | - | - |
| 1787892567 | 18.33° C | 95% | 1017.2 hPa | 0.51 mm | - | - | - |
| 1787892273 | 18.89° C | 97% | 1017.2 hPa | 0.51 mm | - | - | - |
| 1787891971 | 18.89° C | 97% | 1017.1 hPa | 0.76 mm | - | - | - |
| 1787891667 | 18.89° C | 97% | 1017.1 hPa | 1.02 mm | - | - | - |
| 1787891368 | 18.89° C | 97% | 1017.2 hPa | 0.76 mm | - | - | - |
| 1787891073 | 18.89° C | 96% | 1017.1 hPa | 1.02 mm | - | - | - |
| 1787890778 | 18.89° C | 96% | 1017.1 hPa | 1.02 mm | - | - | - |
| 1787890482 | 18.89° C | 96% | 1017.1 hPa | 1.27 mm | - | - | - |
| 1787890060 | 18.89° C | 96% | 1016.9 hPa | 1.27 mm | - | - | - |
| 1787889760 | 18.89° C | 95% | 1017 hPa | 1.27 mm | - | - | - |
| 1787889460 | 19.44° C | 96% | 1017.1 hPa | 1.02 mm | - | - | - |
| 1787889160 | 19.44° C | 96% | 1017.1 hPa | 1.02 mm | - | - | - |
| 1787888860 | 20° C | 96% | 1017.1 hPa | 1.02 mm | - | - | - |
| 1787888562 | 20° C | 97% | 1017 hPa | 1.02 mm | - | - | - |
* Rain latest hour (hover to see other rain measurements)
** Current wind speed in m/s (hover to see current wind gust speed)